カタログに戻る

ONEWEB-0192

運用中通信PO
NORAD 48222·PAYLOAD·🇬🇧 United Kingdom

打ち上げ Apr 25, 2021 から Vostochny Cosmodrome

Loading…

次のパス (今後24時間)

TLE

最新Source: CelesTrak SupGP

元期: Sep 14, 2026, 18:43 UTC

1 48222C 21031N   26257.78002732 -.00001072  00000+0 -28945-2 0  2574
2 48222  87.8892 271.8352 0001853  90.6045  12.0315 13.14499781    11

AllMySatでONEWEB-0192をリアルタイム追跡

Download on the App Store